DW9948 Weather Reports


Display with metric or nautical units.
time (UTC)temp
F
wind
direction
speed
MPH
gust
MPH
rain 1hr
in
rain 24hr
in
rain mn
in
humidity
%
barometer
mb
20181119105758 33 243 0.0 0.0 0.00 0.00 0.00 88 1023.9
20181119105258 33 244 0.0 0.0 0.00 0.00 0.00 88 1024.0
20181119104757 32 249 0.0 0.0 0.00 0.00 0.00 88 1024.0
20181119104258 32 250 0.0 0.0 0.00 0.00 0.00 88 1024.0
20181119103758 32 261 0.0 0.0 0.00 0.00 0.00 88 1024.1
20181119103257 32 245 0.0 0.0 0.00 0.00 0.00 88 1024.0
20181119102758 32 238 0.0 0.0 0.00 0.00 0.00 88 1024.0
20181119102258 32 252 0.0 1.0 0.00 0.00 0.00 88 1024.1
20181119101758 32 248 0.0 0.0 0.00 0.00 0.00 88 1024.1
20181119101258 32 244 0.0 0.0 0.00 0.00 0.00 88 1024.1
20181119100758 32 269 0.0 0.0 0.00 0.00 0.00 88 1024.1
20181119100258 32 252 0.0 0.0 0.00 0.00 0.00 88 1024.1
20181119095758 32 243 0.0 0.0 0.00 0.00 0.00 88 1024.2
20181119095258 32 244 0.0 0.0 0.00 0.00 0.00 89 1024.1
20181119094758 32 255 0.0 0.0 0.00 0.00 0.00 88 1024.1
20181119094258 32 269 0.0 0.0 0.00 0.00 0.00 88 1024.2
20181119093757 32 251 0.0 0.0 0.00 0.00 0.00 88 1024.2
20181119093258 32 246 0.0 0.0 0.00 0.00 0.00 88 1024.2
20181119092758 32 254 0.0 0.0 0.00 0.00 0.00 88 1024.2
20181119092258 32 253 0.0 0.0 0.00 0.00 0.00 88 1024.2
20181119091757 32 256 0.0 0.0 0.00 0.00 0.00 88 1024.2
20181119091258 32 244 0.0 0.0 0.00 0.00 0.00 88 1024.2
20181119090758 32 247 0.0 0.0 0.00 0.00 0.00 88 1024.2
20181119090258 32 253 0.0 0.0 0.00 0.00 0.00 89 1024.1
20181119085758 32 242 0.0 0.0 0.00 0.00 0.00 89 1024.1
20181119085258 32 260 0.0 0.0 0.00 0.00 0.00 89 1024.1
20181119084758 32 244 0.0 0.0 0.00 0.00 0.00 89 1024.2
20181119084257 32 247 0.0 0.0 0.00 0.00 0.00 89 1024.1
20181119083758 32 242 0.0 0.0 0.00 0.00 0.00 89 1024.1
20181119083258 32 245 0.0 0.0 0.00 0.00 0.00 89 1024.1
20181119082757 32 250 0.0 0.0 0.00 0.00 0.00 89 1024.1
20181119082258 32 244 0.0 0.0 0.00 0.00 0.00 89 1024.1
20181119081758 32 249 0.0 0.0 0.00 0.00 0.00 89 1024.1
20181119081258 32 254 0.0 0.0 0.00 0.00 0.00 89 1024.1
20181119080758 32 251 0.0 0.0 0.00 0.00 0.00 89 1024.1
20181119080258 32 253 0.0 0.0 0.00 0.00 0.00 89 1024.0
20181119075757 32 255 0.0 0.0 0.00 0.00 0.00 89 1023.9
20181119075258 32 231 0.0 0.0 0.00 0.00 0.00 89 1023.9
20181119074758 32 252 0.0 0.0 0.00 0.00 0.00 89 1023.9
20181119074257 32 247 0.0 0.0 0.00 0.00 0.00 89 1024.0
20181119073758 32 257 0.0 0.0 0.00 0.00 0.00 89 1024.0
20181119073258 32 250 0.0 0.0 0.00 0.00 0.00 89 1023.9
20181119072758 32 250 0.0 0.0 0.00 0.00 0.00 90 1024.0
20181119072258 32 251 0.0 0.0 0.00 0.00 0.00 90 1024.0
20181119071758 32 257 0.0 0.0 0.00 0.00 0.00 89 1023.9
20181119071258 32 250 0.0 1.0 0.00 0.00 0.00 89 1023.9
20181119070758 32 251 0.0 0.0 0.00 0.00 0.00 90 1023.9
20181119070258 32 253 0.0 0.0 0.00 0.00 0.00 90 1024.0
20181119065758 32 264 0.0 0.0 0.00 0.00 0.00 90 1024.0
20181119065258 32 243 0.0 0.0 0.00 0.00 0.00 90 1024.0
20181119064757 32 237 0.0 0.0 0.00 0.00 0.00 90 1024.0
20181119064258 32 243 0.0 0.0 0.00 0.00 0.00 90 1024.1
20181119063757 32 250 0.0 0.0 0.00 0.00 0.00 89 1024.1
20181119063258 32 243 0.0 0.0 0.00 0.00 0.00 89 1024.1
20181119062757 32 309 0.0 0.0 0.00 0.00 0.00 89 1024.1
20181119062258 32 257 0.0 0.0 0.00 0.00 0.00 89 1024.2
20181119061758 32 257 0.0 0.0 0.00 0.00 0.00 89 1024.2
20181119061258 32 255 0.0 0.0 0.00 0.00 0.00 89 1024.3
20181119060812 32 250 0.0 0.0 0.00 0.00 0.00 89 1024.3
20181119060257 32 242 0.0 0.0 0.00 0.00 0.00 89 1024.3
20181119055758 32 245 0.0 0.0 0.00 0.00 0.00 89 1024.3
20181119055258 32 245 0.0 0.0 0.00 0.00 0.00 89 1024.3
20181119054758 32 245 0.0 0.0 0.00 0.00 0.00 89 1024.4
20181119054258 32 247 0.0 0.0 0.00 0.00 0.00 89 1024.4
20181119053758 32 248 0.0 0.0 0.00 0.00 0.00 89 1024.3
20181119053257 32 244 0.0 0.0 0.00 0.00 0.00 89 1024.3
20181119052758 32 245 0.0 0.0 0.00 0.00 0.00 90 1024.4
20181119052258 32 245 0.0 0.0 0.00 0.00 0.00 89 1024.4
20181119051758 32 245 0.0 0.0 0.00 0.00 0.00 89 1024.4
20181119051258 32 244 0.0 0.0 0.00 0.00 0.00 89 1024.4
20181119050758 32 237 0.0 0.0 0.00 0.00 0.00 89 1024.4
20181119050258 32 234 0.0 0.0 0.00 0.00 0.00 89 1024.4
20181119045758 32 352 0.0 0.0 0.00 0.00 0.00 89 1024.3
20181119045258 32 356 0.0 0.0 0.00 0.00 0.00 89 1024.3
20181119044758 32 3 0.0 0.0 0.00 0.00 0.00 89 1024.4
20181119044258 32 3 0.0 0.0 0.00 0.00 0.00 89 1024.4
20181119043758 32 3 0.0 0.0 0.00 0.00 0.00 89 1024.4
20181119043258 32 3 0.0 0.0 0.00 0.00 0.00 89 1024.6
20181119042758 32 11 0.0 0.0 0.00 0.00 0.00 89 1024.6
20181119042258 32 14 0.0 0.0 0.00 0.00 0.00 89 1024.6
20181119041758 32 19 0.0 0.0 0.00 0.00 0.00 88 1024.7
20181119041258 32 19 0.0 0.0 0.00 0.00 0.00 89 1024.8
20181119040757 32 19 0.0 0.0 0.00 0.00 0.00 88 1024.8
20181119040257 32 19 0.0 0.0 0.00 0.00 0.00 88 1024.8
20181119035758 32 19 0.0 0.0 0.00 0.00 0.00 88 1024.9
20181119035257 32 19 0.0 0.0 0.00 0.00 0.00 88 1025.0
20181119034757 32 19 0.0 0.0 0.00 0.00 0.00 88 1025.0
20181119034257 32 19 0.0 0.0 0.00 0.00 0.00 88 1025.2
20181119033758 32 19 0.0 0.0 0.00 0.00 0.00 88 1025.2
20181119033258 32 19 0.0 0.0 0.00 0.00 0.00 88 1025.2
20181119032758 32 19 0.0 0.0 0.00 0.00 0.00 88 1025.1
20181119032258 32 20 0.0 0.0 0.00 0.00 0.00 88 1025.2
20181119031758 32 19 0.0 0.0 0.00 0.00 0.00 88 1025.2
20181119031258 32 19 0.0 0.0 0.00 0.00 0.00 88 1025.2
20181119030758 32 19 0.0 0.0 0.00 0.00 0.00 88 1025.1
20181119030257 32 19 0.0 0.0 0.00 0.00 0.00 88 1025.1
20181119025758 32 19 0.0 0.0 0.00 0.00 0.00 88 1025.1
20181119025257 32 19 0.0 0.0 0.00 0.00 0.00 88 1025.1
20181119024758 32 19 0.0 0.0 0.00 0.00 0.00 88 1025.1
20181119024258 32 19 0.0 0.0 0.00 0.00 0.00 88 1025.1
20181119023758 32 19 0.0 0.0 0.00 0.00 0.00 88 1025.2
20181119023257 32 19 0.0 0.0 0.00 0.00 0.00 88 1025.2
20181119022758 32 19 0.0 0.0 0.00 0.00 0.00 88 1025.2
20181119022258 32 19 0.0 0.0 0.00 0.00 0.00 88 1025.2
20181119021758 32 20 0.0 0.0 0.00 0.00 0.00 89 1025.3
20181119021258 32 19 0.0 0.0 0.00 0.00 0.00 88 1025.4
20181119020758 32 20 0.0 0.0 0.00 0.00 0.00 89 1025.4
20181119020258 32 19 0.0 0.0 0.00 0.00 0.00 89 1025.4
20181119015758 32 19 0.0 0.0 0.00 0.00 0.00 89 1025.3
20181119015258 32 19 0.0 0.0 0.00 0.00 0.00 89 1025.4
20181119014758 32 19 0.0 0.0 0.00 0.00 0.00 89 1025.3
20181119014257 32 19 0.0 0.0 0.00 0.00 0.00 88 1025.4
20181119013758 32 18 0.0 0.0 0.00 0.00 0.00 88 1025.4
20181119013258 32 18 0.0 0.0 0.00 0.00 0.00 89 1025.4
20181119012758 32 18 0.0 0.0 0.00 0.00 0.00 88 1025.5
20181119012258 32 18 0.0 0.0 0.00 0.00 0.00 88 1025.5
20181119011758 31 18 0.0 0.0 0.00 0.00 0.00 88 1025.6
20181119011258 31 18 0.0 0.0 0.00 0.00 0.00 88 1025.5
20181119010758 32 18 0.0 0.0 0.00 0.00 0.00 88 1025.6
20181119010258 31 18 0.0 0.0 0.00 0.00 0.00 88 1025.7
20181119005758 32 18 0.0 0.0 0.00 0.00 0.00 88 1025.7
20181119005258 32 18 0.0 0.0 0.00 0.00 0.00 88 1025.7
20181119004758 31 18 0.0 0.0 0.00 0.00 0.00 88 1025.6
20181119004258 31 18 0.0 0.0 0.00 0.00 0.00 88 1025.5
20181119003758 31 18 0.0 0.0 0.00 0.00 0.00 89 1025.5
20181119003258 31 18 0.0 0.0 0.00 0.00 0.00 89 1025.5
20181119002758 31 18 0.0 0.0 0.00 0.00 0.00 89 1025.6
20181119002258 31 18 0.0 0.0 0.00 0.00 0.00 89 1025.6
20181119001758 31 18 0.0 0.0 0.00 0.00 0.00 89 1025.6
20181119001258 31 23 0.0 0.0 0.00 0.00 0.00 89 1025.6
20181119000800 31 23 0.0 0.0 0.00 0.00 0.00 89 1025.6
20181119000258 31 14 0.0 0.0 0.00 0.00 0.00 89 1025.6
20181118235758 31 12 0.0 0.0 0.00 0.00 0.00 89 1025.6
20181118235258 31 14 0.0 0.0 0.00 0.00 0.00 89 1025.6
20181118234758 31 40 0.0 0.0 0.00 0.00 0.00 89 1025.6
20181118234258 31 15 0.0 0.0 0.00 0.00 0.00 89 1025.6
20181118233758 31 12 0.0 0.0 0.00 0.00 0.00 89 1025.6
20181118233258 31 19 0.0 0.0 0.00 0.00 0.00 89 1025.6
20181118232758 31 7 0.0 0.0 0.00 0.00 0.00 89 1025.6
20181118232258 31 14 0.0 0.0 0.00 0.00 0.00 89 1025.7
20181118231758 31 22 0.0 0.0 0.00 0.00 0.00 89 1025.7
20181118231258 31 11 0.0 0.0 0.00 0.00 0.00 90 1025.7
20181118230758 31 13 0.0 0.0 0.00 0.00 0.00 89 1025.7
20181118230258 31 11 0.0 0.0 0.00 0.00 0.00 90 1025.7
20181118225758 31 21 0.0 0.0 0.00 0.00 0.00 89 1025.7
20181118225258 31 3 0.0 0.0 0.00 0.00 0.00 90 1025.7
20181118224758 31 3 0.0 0.0 0.00 0.00 0.00 89 1025.7
20181118224258 31 350 0.0 0.0 0.00 0.00 0.00 90 1025.6
20181118223758 31 13 0.0 0.0 0.00 0.00 0.00 90 1025.6
20181118223258 31 14 0.0 0.0 0.00 0.00 0.00 90 1025.6
20181118222758 31 14 0.0 0.0 0.00 0.00 0.00 90 1025.6
20181118222259 31 2 0.0 0.0 0.00 0.00 0.00 90 1025.5
20181118221758 31 347 0.0 0.0 0.00 0.00 0.00 90 1025.5
20181118221258 31 2 0.0 0.0 0.00 0.00 0.00 90 1025.6
20181118220758 31 15 0.0 0.0 0.00 0.00 0.00 90 1025.5
20181118220258 31 15 0.0 0.0 0.00 0.00 0.00 90 1025.4
20181118215758 31 355 0.0 0.0 0.00 0.00 0.00 90 1025.4
20181118215258 31 3 0.0 0.0 0.00 0.00 0.00 90 1025.5
20181118214758 31 19 0.0 0.0 0.00 0.00 0.00 90 1025.6
20181118214259 31 32 0.0 0.0 0.00 0.00 0.00 90 1025.6
20181118213758 31 5 0.0 0.0 0.00 0.00 0.00 90 1025.5
20181118213258 31 17 0.0 0.0 0.00 0.00 0.00 90 1025.6
20181118212758 31 1 0.0 0.0 0.00 0.00 0.00 90 1025.7
20181118212258 31 357 0.0 0.0 0.00 0.00 0.00 90 1025.7
20181118211758 31 9 0.0 0.0 0.00 0.00 0.00 91 1025.7
20181118211258 31 354 0.0 0.0 0.00 0.00 0.00 91 1025.7
20181118210758 31 17 0.0 0.0 0.00 0.00 0.00 91 1025.6
20181118210258 31 5 0.0 0.0 0.00 0.00 0.00 92 1025.6
20181118205759 31 11 0.0 0.0 0.00 0.00 0.00 92 1025.6
20181118205258 30 5 0.0 0.0 0.00 0.00 0.00 92 1025.6
20181118204758 30 16 0.0 0.0 0.00 0.00 0.00 92 1025.7
20181118204258 30 23 0.0 1.0 0.00 0.00 0.00 92 1025.6
20181118203758 31 13 0.0 0.0 0.00 0.00 0.00 91 1025.6
20181118203258 31 22 0.0 0.0 0.00 0.00 0.00 92 1025.6
20181118202758 31 351 0.0 0.0 0.00 0.00 0.00 92 1025.6
20181118202258 31 348 0.0 0.0 0.00 0.00 0.00 92 1025.6
20181118201758 31 10 0.0 0.0 0.00 0.00 0.00 92 1025.5
20181118201258 31 34 0.0 0.0 0.00 0.00 0.00 92 1025.6
20181118200758 31 61 0.0 0.0 0.00 0.00 0.00 92 1025.6
20181118200258 31 19 0.0 0.0 0.00 0.00 0.00 92 1025.7
20181118195758 31 9 0.0 0.0 0.00 0.00 0.00 92 1025.9
20181118195258 31 336 0.0 0.0 0.00 0.00 0.00 92 1025.9
20181118194758 30 22 0.0 0.0 0.00 0.00 0.00 92 1025.9
20181118194258 30 3 0.0 0.0 0.00 0.00 0.00 92 1026.0
20181118193759 30 26 0.0 0.0 0.00 0.00 0.00 92 1026.1
20181118193258 30 25 0.0 0.0 0.00 0.00 0.00 91 1026.1
20181118192758 31 1 0.0 0.0 0.00 0.00 0.00 91 1026.1
20181118192258 31 13 0.0 0.0 0.00 0.00 0.00 91 1026.2
20181118191759 31 32 0.0 0.0 0.00 0.00 0.00 91 1026.2
20181118191258 31 12 0.0 0.0 0.00 0.00 0.00 91 1026.2
20181118190758 30 4 0.0 0.0 0.00 0.00 0.00 91 1026.4
20181118190258 30 27 0.0 0.0 0.00 0.00 0.00 91 1026.5
20181118185758 31 21 0.0 10.0 0.00 0.00 0.00 91 1026.5
20181118185258 31 20 0.0 0.0 0.00 0.00 0.00 91 1026.6
20181118184758 31 16 0.0 0.0 0.00 0.00 0.00 91 1026.7
20181118184259 31 350 0.0 0.0 0.00 0.00 0.00 91 1026.8
20181118183758 31 12 0.0 0.0 0.00 0.00 0.00 91 1026.9
20181118183258 31 356 0.0 0.0 0.00 0.00 0.00 90 1027.0
20181118182758 31 18 0.0 0.0 0.00 0.00 0.00 90 1027.2
20181118182259 31 20 0.0 0.0 0.00 0.00 0.00 90 1027.3
20181118181758 31 356 0.0 0.0 0.00 0.00 0.00 90 1027.3
20181118181259 31 18 0.0 0.0 0.00 0.00 0.00 90 1027.4
20181118180759 31 18 0.0 0.0 0.00 0.00 0.00 90 1027.5
20181118180259 31 23 0.0 0.0 0.00 0.00 0.00 90 1027.6
20181118175758 31 4 0.0 0.0 0.00 0.00 0.00 91 1027.6
20181118175258 31 23 0.0 0.0 0.00 0.00 0.00 90 1027.7
20181118174758 31 13 0.0 0.0 0.00 0.00 0.00 90 1027.7
20181118174258 31 15 0.0 7.0 0.00 0.00 0.00 90 1027.8
20181118173759 31 5 0.0 8.0 0.00 0.00 0.00 90 1027.8
20181118173258 31 5 0.0 12.0 0.00 0.00 0.00 90 1027.9
20181118172758 31 31 3.0 13.0 0.00 0.00 0.00 90 1027.9
20181118172258 31 10 0.0 7.0 0.00 0.00 0.00 91 1028.0
20181118171758 31 41 3.0 9.0 0.00 0.00 0.00 91 1028.0
20181118171258 31 3 1.0 9.0 0.00 0.00 0.00 91 1028.2
20181118170758 31 14 0.0 9.0 0.00 0.00 0.00 91 1028.1
20181118170259 31 21 1.0 9.0 0.00 0.00 0.00 90 1028.1
20181118165758 31 5 1.0 10.0 0.00 0.00 0.00 91 1028.2
20181118165258 31 3 0.0 7.0 0.00 0.00 0.00 91 1028.2
20181118164758 31 18 3.0 9.0 0.00 0.00 0.00 91 1028.1
20181118164259 31 30 0.0 8.0 0.00 0.00 0.00 91 1028.2
20181118163758 31 13 3.0 9.0 0.00 0.00 0.00 91 1028.4
20181118163300 31 351 3.0 7.0 0.00 0.00 0.00 91 1028.4
20181118162758 31 18 0.0 0.0 0.00 0.00 0.00 92 1028.4
20181118162258 31 25 0.0 0.0 0.00 0.00 0.00 92 1028.4
20181118161758 31 8 0.0 2.0 0.00 0.00 0.00 92 1028.4
20181118161258 31 15 3.0 9.0 0.00 0.00 0.00 92 1028.4
20181118160758 31 10 3.0 8.0 0.00 0.00 0.00 93 1028.4
20181118160258 31 18 1.0 7.0 0.00 0.00 0.00 93 1028.4
20181118155758 31 11 3.0 9.0 0.00 0.00 0.00 93 1028.3
20181118155259 30 7 4.0 9.0 0.00 0.00 0.00 93 1028.2
20181118154758 30 52 2.0 8.0 0.00 0.00 0.00 93 1028.2
20181118154259 30 15 0.0 14.0 0.00 0.00 0.00 94 1028.2
20181118153759 30 14 3.0 8.0 0.00 0.00 0.00 94 1028.1
20181118153259 30 30 3.0 13.0 0.00 0.00 0.00 94 1028.1
20181118152758 30 18 6.0 10.0 0.00 0.00 0.00 95 1028.0
20181118152258 30 15 2.0 9.0 0.00 0.00 0.00 95 1028.1
20181118151758 30 49 2.0 7.0 0.00 0.00 0.00 95 1028.0
20181118151258 30 16 7.0 16.0 0.00 0.00 0.00 95 1028.0
20181118150758 30 10 4.0 10.0 0.00 0.00 0.00 95 1028.0
20181118150259 30 25 6.0 9.0 0.00 0.00 0.00 95 1027.9
20181118145758 30 12 2.0 12.0 0.00 0.00 0.00 95 1027.8
20181118145259 30 42 3.0 12.0 0.00 0.00 0.00 95 1027.9
20181118144758 30 13 5.0 13.0 0.00 0.00 0.00 96 1027.8
20181118144259 30 28 4.0 12.0 0.00 0.00 0.00 96 1027.9
20181118143758 30 21 0.0 8.0 0.00 0.00 0.00 96 1028.1
20181118143258 30 21 2.0 10.0 0.00 0.00 0.00 96 1028.1
20181118142758 30 31 3.0 13.0 0.00 0.00 0.00 95 1028.1
20181118142258 30 359 5.0 8.0 0.00 0.00 0.00 95 1028.0
20181118141758 30 46 3.0 8.0 0.00 0.00 0.00 95 1028.0
20181118141259 30 22 6.0 12.0 0.00 0.00 0.00 95 1027.9
20181118140758 30 22 6.0 13.0 0.00 0.00 0.00 95 1027.7
20181118140258 30 22 6.0 16.0 0.00 0.00 0.00 95 1027.5
20181118135759 30 14 3.0 17.0 0.00 0.00 0.00 95 1027.5
20181118135259 30 20 3.0 12.0 0.00 0.00 0.00 95 1027.4
20181118134758 30 37 3.0 12.0 0.00 0.00 0.00 95 1027.4
20181118134258 30 22 4.0 12.0 0.00 0.00 0.00 95 1027.4
20181118133759 30 13 4.0 14.0 0.00 0.00 0.00 95 1027.4
20181118133259 30 33 4.0 12.0 0.00 0.00 0.00 95 1027.5
20181118132758 30 25 6.0 14.0 0.00 0.00 0.00 95 1027.4
20181118132259 30 15 8.0 16.0 0.00 0.00 0.00 95 1027.3
20181118131759 30 8 6.0 14.0 0.00 0.00 0.00 95 1027.4
20181118131259 30 26 4.0 8.0 0.00 0.00 0.00 95 1027.3
20181118130758 30 46 2.0 9.0 0.00 0.00 0.00 95 1027.3
20181118130258 30 11 4.0 14.0 0.00 0.00 0.00 95 1027.4
20181118125759 30 15 4.0 14.0 0.00 0.00 0.00 95 1027.3
20181118125259 30 16 4.0 14.0 0.00 0.00 0.00 95 1027.4
20181118124759 30 31 6.0 12.0 0.00 0.00 0.00 95 1027.5
20181118124258 30 25 2.0 12.0 0.00 0.00 0.00 95 1027.5
20181118123759 30 11 7.0 12.0 0.00 0.00 0.00 95 1027.3
20181118123258 30 20 7.0 17.0 0.00 0.00 0.00 95 1027.3
20181118122759 30 20 6.0 12.0 0.00 0.00 0.00 95 1027.3
20181118122258 30 14 9.0 17.0 0.00 0.00 0.00 95 1027.3
20181118121759 30 22 7.0 17.0 0.00 0.00 0.00 95 1027.2
20181118121259 30 9 3.0 13.0 0.00 0.00 0.00 95 1027.2
20181118120759 30 19 3.0 13.0 0.00 0.00 0.00 95 1026.9
20181118120259 31 37 6.0 10.0 0.00 0.00 0.00 95 1026.8
20181118115759 31 31 4.0 8.0 0.00 0.00 0.00 95 1026.8
20181118115259 31 33 5.0 10.0 0.00 0.00 0.00 95 1026.7
20181118114758 31 24 6.0 13.0 0.00 0.00 0.00 95 1026.8
20181118114259 31 17 8.0 14.0 0.00 0.00 0.00 95 1026.7
20181118113759 31 8 7.0 14.0 0.00 0.00 0.00 95 1026.7
20181118113259 31 17 5.0 10.0 0.00 0.00 0.00 95 1026.6
20181118112758 31 26 5.0 10.0 0.00 0.00 0.00 95 1026.6
20181118112259 31 1 2.0 10.0 0.00 0.00 0.00 95 1026.5
20181118111758 31 25 4.0 10.0 0.00 0.00 0.00 95 1026.3
20181118111259 32 11 6.0 14.0 0.00 0.00 0.00 95 1026.4
20181118110758 32 22 6.0 13.0 0.00 0.00 0.00 94 1026.2
20181118110259 32 15 5.0 12.0 0.00 0.00 0.00 95 1026.3